Current weather by "City, St" or "zip code"  
 
Advertise Here

Current Conditions: Milwaukee, General Mitchell International Airport, WI

Mostly Cloudy


25.0 F

Last Updated on Jan 27 2021, 1:52 pm CST
Humidity: 60%
Wind Speed: N 10.4 mph
Barometer 30.36 in
Dewpoint: 12.9 F
Visibility: 10.00 mi
Precip: --
Heat Index: NA
Wind Chill: 15 F
Current conditions at:

Milwaukee, General Mitchell International Airport, WI (KMKE)

Lat: 42.955 Lon: 87.90444

Local Radar Image active severe weather and emergency alerts image image weather storm and storm spotter reports image weather observation monitoring service image
Local
Radar
Active
Alerts
Storm Reports Obs
Monitoring

Sign-up For Email & Text Message Weather Alert Notification Services


Advertise Here

Observation History for Milwaukee, General Mitchell International Airport, WI


Time Wind
(mph)
Vis
(mi)
Weather Precip (in) Temperature (F) Relative
Humidity
Wind
Chill
(F)
Heat
Index
(F)
Pressure
Air Dwpt altimeter
(in)
sea level
(mb)
Rmks
1:52 pm CST N 10.4 10.00 Mostly Cloudy -- 25.0 12.9 60% 15 NA 30.36 1029.2
12:52 pm CST NW 6.9 10.00 Partly Cloudy -- 25.0 12.9 60% 17 NA 30.36 1029.3
11:52 am CST N 10.4 10.00 Partly Cloudy -- 24.0 12.9 62% 14 NA 30.36 1029.5
10:52 am CST NW 11.5 10.00 Partly Cloudy -- 23.0 12.9 65% 12 NA 30.37 1029.9
9:52 am CST NW 9.2 10.00 Partly Cloudy -- 20.0 10.0 65% 9 NA 30.38 1029.9
8:52 am CST NW 11.5 10.00 Mostly Cloudy -- 17.0 8.1 68% 4 NA 30.35 1029.3
7:52 am CST NW 9.2 10.00 Partly Cloudy -- 14.0 6.1 71% 2 NA 30.36 1029.5
6:52 am CST NW 6.9 10.00 Mostly Cloudy -- 15.0 7.0 70% 5 NA 30.34 1028.9
5:52 am CST N 9.2 10.00 A Few Clouds -- 16.0 8.1 71% 4 NA 30.27 1026.3
4:52 am CST NW 9.2 10.00 Overcast -- 18.0 9.0 68% 7 NA 30.29 1026.9
3:52 am CST NW 10.4 10.00 Mostly Cloudy -- 18.0 9.0 68% 6 NA 30.31 1027.7
2:52 am CST NW 10.4 10.00 Mostly Cloudy -- 18.0 9.0 68% 6 NA 30.31 1027.7
1:52 am CST NW 8.1 10.00 Overcast -- 19.0 10.0 68% 9 NA 30.29 1026.8
12:52 am CST NW 9.2 10.00 Overcast -- 20.0 10.0 65% 9 NA 30.25 1025.7
11:52 pm CST NW 6.9 10.00 Mostly Cloudy -- 21.0 10.9 65% 12 NA 30.23 1024.6
10:52 pm CST NW 9.2 10.00 A Few Clouds -- 21.0 10.9 65% 11 NA 30.21 1024.0
9:52 pm CST NW 9.2 9.00 A Few Clouds -- 22.0 12.9 68% 12 NA 30.19 1023.3
8:52 pm CST NW 8.1 10.00 A Few Clouds -- 23.0 12.9 65% 14 NA 30.19 1023.4
7:52 pm CST NW 15.0 G 23.0 10.00 Mostly Cloudy -- 25.0 14.0 63% 13 NA 30.17 1022.8
6:52 pm CST NW 11.5 10.00 Overcast -- 25.0 16.0 69% 14 NA 30.14 1021.8
5:52 pm CST N 17.3 G 28.8 10.00 Overcast -- 26.0 16.0 66% 13 NA 30.11 1020.6
4:52 pm CST N 15.0 G 21.9 10.00 Overcast -- 27.0 18.0 69% 15 NA 30.08 1019.5
3:52 pm CST N 17.3 G 33.4 8.00 Overcast Trace 27.0 19.9 75% 14 NA 30.03 1018.0
2:52 pm CST N 20.7 G 29.9 4.00 Light Snow and Breezy 00.01 28.0 21.0 75% 15 NA 30.00 1017.0

Regional Weather Observation


Waukesha County Airport, WI (KUES)

Fair
21.0 F

West Bend Municipal Airport, WI (KETB)

Fair
19.0 F

Watertown, WI (KRYV)

Fair
17.0 F

Milwaukee, General Mitchell International Airport, WI (KMKE)

Mostly Cloudy
25.0 F

Juneau, Dodge County Airport, WI (KUNU)

Partly Cloudy
16.0 F

East Troy Municipal Airport, WI (K57C)

Fair
21.0 F